[[{"header":{"parameterUnit":"m.s-1","parameterCategory":1,"la1":30.2991,"la2":30.254,"lo1":-89.0895,"lo2":-89.0444,"dy":0.0017,"dx":0.0017,"nx":28,"ny":28,"refTime":"2024-06-07T09:00:00:Z","depth":0,"parameterNumber":2,"parameterNumberName":"U-component_of_WINDS"},"data":[0,0,0,0,0,0,0,0,0,0,0,0,0,0,0,0,0,0,0,0,0,0,0,0,0,0,0,0,0,0,0,0,0,0,0,0,0,0,0,0,0,0,0,0,0,0,0,0,0,0,0,0,0,0,0,0,0,0,0.6598,0.6598,0,0.6655,0.6656,0.6657,0.6658,0.6657,0.6656,0.6656,0.6716,0.6719,0.6721,0,0,0,0,0,0,0,0,0,0,0,0,0,0.6492,0.6494,0.6598,0.6598,0.6599,0.6655,0.6656,0.6657,0.6658,0.6657,0.6656,0.6655,0.6716,0.6718,0.6721,0,0,0,0,0,0,0,0,0,0,0,0,0,0.6542,0.6494,0.6598,0.6606,0.6608,0.6655,0.6656,0.6657,0.6658,0.6657,0.6656,0.6655,0.6715,0.6718,0.6722,0.6764,0,0,0.6732,0.6734,0,0,0,0,0,0,0,0,0.6539,0.6546,0.6604,0.6606,0.6607,0.6648,0.6641,0.6693,0.6658,0.6639,0.6656,0.6654,0.6695,0.67,0.6713,0.6767,0.677,0.6732,0.6734,0.6736,0.6737,0,0,0,0,0,0,0,0.6536,0.6544,0.6621,0.6605,0.6607,0.6608,0.6614,0.6651,0.6672,0.6641,0.6641,0.6648,0.6695,0.671,0.6714,0.6771,0.6732,0.6735,0.6737,0.6739,0.6865,0.6866,0,0,0,0,0,0,0.653,0.6541,0.6619,0.6622,0.657,0.6611,0.6618,0.6636,0.6672,0.6676,0.6648,0.6647,0.6704,0.671,0.6717,0.677,0.6736,0.6739,0.6741,0.6863,0.6865,0.6866,0,0,0,0,0,0,0.6528,0.6537,0.6616,0.6582,0.6592,0.6614,0.6635,0.6638,0.6652,0.6678,0.6682,0.6659,0.6704,0.6712,0.6753,0.6772,0.6741,0.6744,0.6862,0.6864,0.6866,0.6876,0,0,0,0,0,0,0.6525,0.6536,0.6552,0.6582,0.6594,0.6651,0.6636,0.664,0.6658,0.6657,0.6689,0.6693,0.6703,0.6748,0.6756,0.6776,0.6746,0.686,0.6863,0.6865,0.6874,0.6878,0.6882,0,0,0,0,0,0.6521,0.6553,0.6553,0.6562,0.6614,0.6652,0.6658,0.6669,0.6659,0.6676,0.6693,0.6692,0.6769,0.6752,0.6761,0.6783,0.6859,0.6862,0.6865,0.6872,0.6877,0.6881,0,0,0,0,0,0,0.6525,0.6557,0.6557,0.6599,0.6623,0.6652,0.6673,0.6674,0.6701,0.67,0.6713,0.672,0.6761,0.6776,0.6757,0.6827,0.6813,0.6818,0.6815,0.682,0.6824,0.6819,0.6749,0,0,0,0,0,0.6531,0.6558,0.6585,0.662,0.6631,0.665,0.6667,0.6674,0.6699,0.6709,0.6728,0.6753,0.6783,0.6803,0.6831,0.6877,0.6884,0.6896,0.69,0.6903,0.6907,0.6933,0.6939,0.6876,0.6876,0.6876,0,0,0.6543,0.6564,0.658,0.6621,0.664,0.6669,0.6658,0.6689,0.6711,0.6714,0.6753,0.6769,0.6798,0.6841,0.6862,0.6855,0.6926,0.6907,0.6909,0.6911,0.6937,0.6943,0.6948,0.6878,0.6878,0.6877,0,0,0.6579,0.6598,0.6629,0.6648,0.6677,0.669,0.6697,0.6727,0.6737,0.6777,0.678,0.6807,0.6857,0.6878,0.6895,0.6942,0.6943,0.6951,0.697,0.6996,0.7001,0.7005,0.7022,0.7028,0.6955,0.6955,0.6955,0,0.6591,0.6634,0.6645,0.6676,0.6695,0.6698,0.673,0.6749,0.6786,0.6799,0.6791,0.6856,0.6876,0.6925,0.6936,0.695,0.696,0.6947,0.6999,0.7004,0.7008,0.7024,0.7031,0.6956,0.6956,0.6956,0.6956,0,0.6647,0.6677,0.6699,0.6734,0.6755,0.6787,0.6804,0.6824,0.6829,0.6843,0.6885,0.6909,0.6943,0.6955,0.6961,0.7005,0.7001,0.6996,0.6982,0.7015,0.703,0.7037,0.6957,0.6957,0.6957,0.6957,0,0,0.6686,0.6728,0.6736,0.6753,0.6786,0.6809,0.6842,0.6875,0.6892,0.6919,0.6947,0.699,0.6987,0.7006,0.7014,0.7037,0.7073,0.7029,0.703,0.7037,0.7125,0.7128,0.7135,0.7074,0.7075,0.7076,0.7122,0,0.6727,0.6784,0.6795,0.6845,0.6874,0.6878,0.6907,0.6931,0.6945,0.6972,0.6988,0.7019,0.7011,0.7023,0.7046,0.7064,0.7091,0.7061,0.7101,0.7102,0.7093,0.7143,0.7146,0.7188,0.7128,0.7129,0.713,0,0.6781,0.6808,0.686,0.689,0.6903,0.6928,0.696,0.6986,0.7014,0.7023,0.7045,0.7051,0.7087,0.7072,0.7121,0.71,0.7118,0.713,0.7132,0.7135,0.7118,0.7148,0.7202,0.7208,0.714,0.7139,0.7138,0,0.6805,0.6854,0.6892,0.6906,0.6942,0.696,0.6976,0.7003,0.7023,0.7051,0.7064,0.7097,0.7114,0.714,0.7155,0.7143,0.7204,0.719,0.7213,0.7212,0.7225,0.7224,0.7282,0.7237,0.7236,0.7236,0.7236,0,0.6848,0.688,0.6904,0.6927,0.6964,0.6978,0.7014,0.703,0.7054,0.7081,0.7088,0.7114,0.7132,0.7161,0.7173,0.7213,0.7221,0.723,0.7233,0.7229,0.7228,0.724,0.7238,0.7238,0.7238,0.7237,0.7237,0,0.688,0.6897,0.6939,0.697,0.6979,0.7004,0.7031,0.7055,0.707,0.7105,0.7114,0.7137,0.7172,0.719,0.7233,0.7241,0.7286,0.7287,0.7276,0.7277,0.7299,0.7297,0.7367,0.7378,0.7325,0.7326,0.7326,0,0.6907,0.6932,0.6965,0.6984,0.7,0.703,0.705,0.7066,0.7087,0.7121,0.7141,0.7176,0.7204,0.7259,0.7281,0.7314,0.7316,0.7339,0.7321,0.7317,0.7317,0.7315,0.7318,0.7341,0.7342,0.7342,0.7343,0,0.6952,0.696,0.6988,0.702,0.7044,0.7069,0.7095,0.711,0.713,0.7154,0.7189,0.7211,0.7255,0.729,0.7325,0.7343,0.7347,0.7348,0.7355,0.7352,0.7344,0.7349,0.7284,0.7346,0.7346,0.7346,0.7346,0.7345,0.6982,0.7005,0.7032,0.7064,0.7085,0.7109,0.7133,0.7151,0.7181,0.7217,0.7225,0.7263,0.7292,0.7339,0.7358,0.7388,0.7384,0.7394,0.7397,0.7399,0.74,0.734,0.7395,0.7395,0.7395,0.7395,0.7395,0,0.7028,0.7046,0.7075,0.7111,0.7137,0.7138,0.7167,0.7188,0.7221,0.7247,0.7275,0.7316,0.735,0.7375,0.741,0.743,0.7432,0.7438,0.7437,0.7441,0.7402,0.7392,0.7436,0.7436,0.7435,0.7435,0.7435,0.7435,0.7055,0.7093,0.7104,0.7154,0.7172,0.7208,0.7225,0.7248,0.7269,0.7314,0.7342,0.7358,0.7384,0.7422,0.7453,0.746,0.7473,0.7479,0.7485,0.7448,0.7444,0.7439,0.743,0.7481,0.7481,0.7522,0.7522,0.7523]},{"header":{"parameterUnit":"m.s-1","parameterCategory":1,"la1":30.2991,"la2":30.254,"lo1":-89.0895,"lo2":-89.0444,"dy":0.0017,"dx":0.0017,"nx":28,"ny":28,"refTime":"2024-06-07T09:00:00:Z","depth":0,"parameterNumber":3,"parameterNumberName":"V-component_of_WINDS"},"data":[0,0,0,0,0,0,0,0,0,0,0,0,0,0,0,0,0,0,0,0,0,0,0,0,0,0,0,0,0,0,0,0,0,0,0,0,0,0,0,0,0,0,0,0,0,0,0,0,0,0,0,0,0,0,0,0,0,0,-1.7348,-1.7348,0,-1.7372,-1.7372,-1.7372,-1.7354,-1.7353,-1.7353,-1.7352,-1.7377,-1.7379,-1.738,0,0,0,0,0,0,0,0,0,0,0,0,0,-1.7288,-1.729,-1.7348,-1.7348,-1.7349,-1.7372,-1.7372,-1.7373,-1.7354,-1.7353,-1.7352,-1.7352,-1.7377,-1.7378,-1.738,0,0,0,0,0,0,0,0,0,0,0,0,0,-1.7314,-1.729,-1.7348,-1.7342,-1.7342,-1.7372,-1.7372,-1.7373,-1.7355,-1.7353,-1.7352,-1.7351,-1.7376,-1.7378,-1.738,-1.7417,0,0,-1.7387,-1.7388,0,0,0,0,0,0,0,0,-1.7312,-1.7316,-1.7343,-1.7343,-1.7343,-1.7359,-1.736,-1.7388,-1.7355,-1.735,-1.7352,-1.7351,-1.7372,-1.7375,-1.7382,-1.7418,-1.7419,-1.7387,-1.7388,-1.7389,-1.739,0,0,0,0,0,0,0,-1.731,-1.7315,-1.7358,-1.7343,-1.7343,-1.7339,-1.7341,-1.7365,-1.7367,-1.735,-1.7349,-1.7352,-1.7372,-1.738,-1.7382,-1.742,-1.7387,-1.7389,-1.739,-1.7391,-1.7488,-1.7489,0,0,0,0,0,0,-1.7309,-1.7313,-1.7357,-1.7358,-1.7324,-1.7341,-1.7344,-1.7355,-1.7367,-1.7368,-1.7353,-1.7351,-1.7377,-1.738,-1.7383,-1.7426,-1.7389,-1.7391,-1.7392,-1.7487,-1.7488,-1.749,0,0,0,0,0,0,-1.7308,-1.7313,-1.7356,-1.7335,-1.7341,-1.7344,-1.7356,-1.7356,-1.7364,-1.7369,-1.737,-1.736,-1.7376,-1.738,-1.7409,-1.7427,-1.7392,-1.7394,-1.7485,-1.7487,-1.7489,-1.7514,0,0,0,0,0,0,-1.7306,-1.7313,-1.7326,-1.7336,-1.7342,-1.7381,-1.7357,-1.7357,-1.7367,-1.7365,-1.7376,-1.7377,-1.7375,-1.7406,-1.7411,-1.7429,-1.7396,-1.7484,-1.7486,-1.7488,-1.7512,-1.7517,-1.7521,0,0,0,0,0,-1.7304,-1.7333,-1.7327,-1.7333,-1.7359,-1.7382,-1.7385,-1.7382,-1.7369,-1.7383,-1.7386,-1.7377,-1.7425,-1.7409,-1.7414,-1.7434,-1.7482,-1.7485,-1.7488,-1.751,-1.7516,-1.7521,0,0,0,0,0,0,-1.7325,-1.7334,-1.7328,-1.736,-1.7371,-1.7379,-1.7396,-1.7389,-1.7404,-1.7401,-1.7397,-1.74,-1.743,-1.7435,-1.7417,-1.747,-1.7451,-1.7456,-1.7466,-1.7472,-1.7476,-1.7474,-1.7397,0,0,0,0,0,-1.7334,-1.7352,-1.7358,-1.7386,-1.7392,-1.7393,-1.7403,-1.74,-1.7411,-1.7415,-1.7421,-1.7432,-1.7449,-1.7461,-1.7477,-1.7513,-1.7515,-1.7529,-1.7534,-1.7538,-1.7541,-1.756,-1.7566,-1.7499,-1.7499,-1.7499,0,0,-1.7352,-1.7358,-1.737,-1.7391,-1.7398,-1.7417,-1.7397,-1.7418,-1.7432,-1.7418,-1.7445,-1.745,-1.7462,-1.7495,-1.7509,-1.75,-1.756,-1.7541,-1.7544,-1.7546,-1.7564,-1.757,-1.7576,-1.7501,-1.7501,-1.7501,0,0,-1.7393,-1.74,-1.7424,-1.7432,-1.7444,-1.7445,-1.7451,-1.746,-1.7463,-1.749,-1.7481,-1.7498,-1.7528,-1.7537,-1.7545,-1.7591,-1.7583,-1.7597,-1.7621,-1.764,-1.7645,-1.765,-1.7666,-1.7672,-1.7601,-1.7601,-1.7601,0,-1.7413,-1.7441,-1.7437,-1.7459,-1.7468,-1.7457,-1.7482,-1.749,-1.7507,-1.7514,-1.7503,-1.7541,-1.7548,-1.7583,-1.7594,-1.7601,-1.7608,-1.7595,-1.7645,-1.7649,-1.7654,-1.7669,-1.7675,-1.7602,-1.7602,-1.7602,-1.7602,0,-1.7465,-1.7485,-1.7503,-1.7519,-1.7531,-1.7553,-1.7554,-1.7566,-1.7563,-1.7565,-1.7593,-1.7602,-1.762,-1.7628,-1.7624,-1.7662,-1.7656,-1.7645,-1.7626,-1.7662,-1.7676,-1.7682,-1.7605,-1.7604,-1.7603,-1.7603,0,0,-1.752,-1.7534,-1.7541,-1.7548,-1.756,-1.7575,-1.7598,-1.7616,-1.7626,-1.7639,-1.7658,-1.7684,-1.7674,-1.7684,-1.7682,-1.7698,-1.7734,-1.7686,-1.7686,-1.7694,-1.7775,-1.7783,-1.7789,-1.7729,-1.773,-1.7731,-1.7774,0,-1.7561,-1.76,-1.7598,-1.7635,-1.7652,-1.7643,-1.7663,-1.7673,-1.7676,-1.7692,-1.7695,-1.7714,-1.77,-1.7706,-1.7722,-1.7726,-1.775,-1.7723,-1.7746,-1.7747,-1.7743,-1.7797,-1.7805,-1.7845,-1.778,-1.7781,-1.7781,0,-1.7615,-1.7628,-1.7667,-1.7677,-1.7684,-1.7702,-1.7718,-1.7733,-1.7745,-1.7746,-1.7757,-1.7753,-1.7776,-1.7757,-1.779,-1.7771,-1.7781,-1.7785,-1.7786,-1.7788,-1.7766,-1.7799,-1.7858,-1.7863,-1.779,-1.779,-1.7789,0,-1.765,-1.7678,-1.7704,-1.7711,-1.7724,-1.7736,-1.7742,-1.7753,-1.7764,-1.7778,-1.7785,-1.7802,-1.7811,-1.7825,-1.7825,-1.7811,-1.7858,-1.7839,-1.7859,-1.7859,-1.7869,-1.7868,-1.7929,-1.7876,-1.7876,-1.7876,-1.7876,0,-1.7696,-1.7719,-1.772,-1.7736,-1.7763,-1.7761,-1.7787,-1.7792,-1.7802,-1.7819,-1.7812,-1.7829,-1.7828,-1.7845,-1.7846,-1.7873,-1.7877,-1.7879,-1.7878,-1.7879,-1.7879,-1.7884,-1.7881,-1.7878,-1.7877,-1.7877,-1.7877,0,-1.7739,-1.774,-1.7769,-1.7778,-1.7781,-1.78,-1.7809,-1.7825,-1.7828,-1.785,-1.7855,-1.7859,-1.7879,-1.7881,-1.7904,-1.7904,-1.7937,-1.7934,-1.7932,-1.7932,-1.7952,-1.795,-1.8018,-1.8027,-1.7969,-1.797,-1.797,0,-1.7767,-1.7785,-1.7797,-1.7808,-1.7815,-1.7833,-1.7843,-1.7843,-1.7854,-1.7869,-1.7883,-1.7902,-1.7917,-1.795,-1.7955,-1.7973,-1.797,-1.7993,-1.7973,-1.7973,-1.797,-1.7968,-1.797,-1.7996,-1.7997,-1.7998,-1.7998,0,-1.7818,-1.7818,-1.7834,-1.785,-1.7863,-1.7876,-1.7888,-1.7898,-1.7898,-1.7912,-1.7932,-1.7944,-1.7967,-1.7986,-1.8004,-1.8011,-1.8005,-1.8005,-1.801,-1.801,-1.8009,-1.8009,-1.7942,-1.8003,-1.8002,-1.8002,-1.8002,-1.8001,-1.7854,-1.787,-1.788,-1.7898,-1.7907,-1.7919,-1.7934,-1.7939,-1.7955,-1.7974,-1.7973,-1.7995,-1.8007,-1.803,-1.8038,-1.8056,-1.8048,-1.8057,-1.8059,-1.806,-1.8062,-1.8007,-1.8059,-1.8059,-1.8059,-1.8059,-1.8059,0,-1.7904,-1.7911,-1.7927,-1.7944,-1.7958,-1.7951,-1.7965,-1.7977,-1.7996,-1.8008,-1.8023,-1.8046,-1.8065,-1.8073,-1.8091,-1.8104,-1.8101,-1.8109,-1.8107,-1.8109,-1.8068,-1.8061,-1.811,-1.811,-1.811,-1.811,-1.811,-1.811,-1.7931,-1.7957,-1.7959,-1.7989,-1.7996,-1.8017,-1.8025,-1.8036,-1.8045,-1.8071,-1.8086,-1.8091,-1.8101,-1.8121,-1.8138,-1.814,-1.8146,-1.8155,-1.8155,-1.8117,-1.8112,-1.8107,-1.81,-1.8156,-1.8156,-1.8194,-1.8195,-1.8195]}]]